AF5AA Weather Reports


Display with metric or nautical units.
time (UTC)temp
F
wind
direction
speed
MPH
gust
MPH
rain 1hr
in
rain 24hr
in
rain mn
in
humidity
%
barometer
mb
20260504050317 58 105 0.0 0.0 0.00 0.00 0.00 87 1016.6
20260504045814 58 105 0.0 0.0 0.00 0.01 0.01 87 1016.6
20260504045309 59 105 0.0 0.0 0.00 0.01 0.01 87 1016.4
20260504044806 59 105 0.0 0.0 0.00 0.01 0.01 88 1016.6
20260504044304 59 105 0.0 0.0 0.00 0.01 0.01 88 1016.5
20260504043801 59 105 0.0 0.0 0.00 0.01 0.01 88 1016.6
20260504043258 59 104 0.0 0.0 0.00 0.01 0.01 88 1016.6
20260504042755 59 107 0.0 0.0 0.00 0.01 0.01 88 1016.3
20260504042251 59 104 0.0 0.0 0.00 0.01 0.01 88 1016.6
20260504041748 59 106 0.0 0.0 0.00 0.01 0.01 87 1016.5
20260504041244 60 105 0.0 0.0 0.00 0.01 0.01 87 1016.5
20260504040740 60 106 0.0 0.0 0.00 0.01 0.01 87 1016.6
20260504040238 60 105 0.0 0.0 0.00 0.01 0.01 87 1016.5
20260504035734 60 105 0.0 0.0 0.00 0.01 0.01 86 1016.5
20260504035231 60 105 0.0 0.0 0.00 0.01 0.01 86 1016.6
20260504034729 60 104 0.0 0.0 0.00 0.01 0.01 85 1016.7
20260504034226 61 104 0.0 0.0 0.00 0.01 0.01 84 1016.6
20260504033723 61 103 0.0 0.0 0.00 0.01 0.01 82 1016.6
20260504033221 61 118 0.0 0.0 0.00 0.01 0.01 83 1016.6
20260504032717 61 106 0.0 0.0 0.00 0.01 0.01 83 1016.7
20260504032215 61 106 0.0 0.0 0.00 0.01 0.01 82 1016.8
20260504031711 61 106 0.0 0.0 0.00 0.01 0.01 82 1016.6
20260504031208 62 106 0.0 0.0 0.00 0.01 0.01 82 1016.7
20260504030704 62 106 0.0 0.0 0.00 0.01 0.01 81 1016.8
20260504030202 62 106 0.0 0.0 0.00 0.01 0.01 81 1016.8
20260504025658 62 106 0.0 0.0 0.00 0.01 0.01 82 1016.5
20260504025155 62 106 0.0 0.0 0.00 0.01 0.01 82 1017.0
20260504024652 63 106 0.0 0.0 0.00 0.01 0.01 82 1016.6
20260504024148 63 113 0.0 0.0 0.00 0.01 0.01 81 1016.6
20260504023645 63 113 0.0 0.0 0.00 0.01 0.01 80 1016.6
20260504023141 63 113 0.0 0.0 0.00 0.01 0.01 79 1016.6
20260504022638 64 113 0.0 0.0 0.00 0.01 0.01 79 1016.6
20260504022133 64 113 0.0 0.0 0.00 0.01 0.01 81 1016.3
20260504021632 64 113 0.0 0.0 0.00 0.01 0.01 77 1016.6
20260504021128 64 114 0.0 0.0 0.00 0.01 0.01 76 1016.6
20260504020625 64 114 0.0 0.0 0.00 0.01 0.01 78 1016.6
20260504020121 65 114 0.0 0.0 0.00 0.01 0.01 80 1016.6
20260504015618 65 114 0.0 0.0 0.00 0.01 0.01 77 1016.4
20260504015114 65 114 0.0 0.0 0.00 0.01 0.01 77 1016.3
20260504014610 65 106 0.0 0.0 0.00 0.01 0.01 78 1016.4
20260504014108 65 110 0.0 0.0 0.00 0.01 0.01 77 1016.3
20260504013605 66 109 0.0 0.0 0.00 0.01 0.01 78 1016.3
20260504013101 67 109 0.0 0.0 0.00 0.01 0.01 77 1016.3
20260504012559 67 109 0.0 0.0 0.00 0.01 0.01 75 1016.3
20260504012057 67 109 0.0 0.0 0.00 0.01 0.01 71 1016.3
20260504011553 68 109 0.0 0.0 0.00 0.01 0.01 74 1016.3
20260504011050 68 109 0.0 0.0 0.00 0.01 0.01 72 1016.2
20260504010545 69 109 0.0 0.0 0.00 0.01 0.01 74 1016.1
20260504010042 69 109 0.0 0.0 0.00 0.01 0.01 72 1016.0
20260504005538 69 109 0.0 0.0 0.00 0.01 0.01 73 1016.0
20260504005036 70 109 0.0 0.0 0.00 0.01 0.01 69 1016.1
20260504004534 70 109 0.0 0.0 0.00 0.01 0.01 70 1016.2
20260504004030 71 109 0.0 0.0 0.00 0.01 0.01 70 1016.1
20260504003526 71 109 0.0 0.0 0.00 0.01 0.01 67 1016.1
20260504003023 72 109 0.0 0.0 0.00 0.01 0.01 68 1016.0
20260504002520 72 109 0.0 0.0 0.00 0.01 0.01 68 1016.3
20260504002018 72 109 0.0 0.0 0.00 0.01 0.01 62 1016.2
20260504001515 73 108 0.0 0.0 0.00 0.01 0.01 65 1016.1
20260504001011 73 108 0.0 0.0 0.00 0.01 0.01 61 1016.3
20260504000509 74 106 0.0 0.0 0.00 0.01 0.01 61 1016.4
20260504000006 74 106 0.0 0.0 0.00 0.01 0.01 60 1016.3
20260503235504 74 106 0.0 0.0 0.00 0.01 0.01 58 1016.3
20260503235001 75 114 0.0 0.0 0.00 0.01 0.01 55 1016.4
20260503234458 75 106 0.0 0.0 0.00 0.01 0.01 53 1016.2
20260503233956 76 109 0.0 0.0 0.00 0.01 0.01 49 1016.4
20260503233452 76 107 0.0 0.0 0.00 0.01 0.01 48 1016.4
20260503232949 77 121 0.0 0.0 0.00 0.01 0.01 45 1016.5
20260503232446 77 108 0.0 0.0 0.00 0.01 0.01 44 1016.7
20260503231944 77 110 0.0 1.0 0.00 0.01 0.01 44 1016.6
20260503231441 77 105 0.0 0.0 0.00 0.01 0.01 43 1016.4
20260503230937 77 112 0.0 1.0 0.00 0.01 0.01 44 1016.4
20260503230434 77 124 0.0 0.0 0.00 0.01 0.01 47 1016.4
20260503225932 77 109 0.0 0.0 0.00 0.01 0.01 48 1016.5
20260503225428 78 116 0.0 0.0 0.00 0.01 0.01 43 1016.6
20260503224924 78 41 1.0 1.0 0.00 0.01 0.01 43 1016.5
20260503224421 78 115 0.0 0.0 0.00 0.01 0.01 42 1016.5
20260503223919 78 116 0.0 0.0 0.00 0.01 0.01 46 1016.4
20260503223417 78 107 0.0 0.0 0.00 0.01 0.01 51 1016.4
20260503222917 78 127 0.0 1.0 0.00 0.01 0.01 42 1016.5
20260503222415 78 140 0.0 0.0 0.00 0.01 0.01 40 1016.7
20260503221914 78 114 0.0 0.0 0.00 0.01 0.01 40 1016.6
20260503221412 78 123 0.0 0.0 0.00 0.01 0.01 44 1016.7
20260503220908 78 117 0.0 1.0 0.00 0.01 0.01 41 1016.8
20260503220404 79 111 0.0 0.0 0.00 0.01 0.01 38 1016.9
20260503215901 79 205 1.0 1.0 0.00 0.01 0.01 39 1016.7
20260503215358 79 98 0.0 0.0 0.00 0.01 0.01 38 1016.8
20260503214856 79 124 0.0 0.0 0.00 0.01 0.01 40 1017.0
20260503214353 79 123 1.0 1.0 0.00 0.01 0.01 38 1017.1
20260503213850 79 118 1.0 1.0 0.00 0.01 0.01 39 1017.2
20260503213348 79 117 0.0 0.0 0.00 0.01 0.01 40 1017.3
20260503212845 79 117 0.0 1.0 0.00 0.01 0.01 39 1017.4
20260503212343 79 99 1.0 1.0 0.00 0.01 0.01 39 1017.4
20260503211839 79 100 0.0 0.0 0.00 0.01 0.01 37 1017.3
20260503211336 80 146 1.0 2.0 0.00 0.01 0.01 39 1017.5
20260503210831 79 182 1.0 1.0 0.00 0.01 0.01 39 1017.5
20260503210329 80 115 0.0 0.0 0.00 0.01 0.01 41 1017.9
20260503205824 80 116 0.0 0.0 0.00 0.01 0.01 38 1018.0
20260503205321 79 130 1.0 1.0 0.00 0.01 0.01 41 1017.9
20260503204817 79 110 1.0 1.0 0.00 0.01 0.01 40 1018.0
20260503204315 79 137 1.0 1.0 0.00 0.01 0.01 41 1018.3
20260503203812 79 132 1.0 2.0 0.00 0.01 0.01 40 1018.4
20260503203309 80 133 0.0 1.0 0.00 0.01 0.01 39 1018.3
20260503202806 79 163 0.0 1.0 0.00 0.01 0.01 39 1018.5
20260503202304 78 116 0.0 0.0 0.00 0.01 0.01 43 1018.7
20260503201802 80 99 0.0 0.0 0.00 0.01 0.01 42 1018.7
20260503201259 80 112 0.0 0.0 0.00 0.01 0.01 41 1018.8
20260503200756 79 63 0.0 0.0 0.00 0.01 0.01 41 1018.8
20260503200252 80 143 2.0 2.0 0.00 0.01 0.01 41 1019.0
20260503195750 79 324 0.0 1.0 0.00 0.01 0.01 40 1018.9
20260503195246 80 128 0.0 0.0 0.00 0.01 0.01 39 1019.0
20260503194744 78 111 1.0 1.0 0.00 0.01 0.01 42 1019.2
20260503194239 78 181 1.0 2.0 0.00 0.01 0.01 42 1019.2
20260503193735 77 114 0.0 0.0 0.00 0.01 0.01 41 1019.4
20260503193232 78 136 0.0 1.0 0.00 0.01 0.01 39 1019.5
20260503192727 78 216 3.0 3.0 0.00 0.01 0.01 43 1019.4
20260503192222 78 135 0.0 0.0 0.00 0.01 0.01 43 1019.5
20260503191720 77 102 0.0 0.0 0.00 0.01 0.01 45 1019.4
20260503191217 77 85 0.0 0.0 0.00 0.01 0.01 44 1019.6
20260503190714 78 149 0.0 1.0 0.00 0.01 0.01 44 1019.6
20260503190210 78 125 1.0 1.0 0.00 0.01 0.01 42 1019.7
20260503185708 78 127 0.0 0.0 0.00 0.01 0.01 42 1019.6
20260503185203 79 105 0.0 1.0 0.00 0.01 0.01 41 1020.0
20260503184657 79 104 0.0 0.0 0.00 0.01 0.01 43 1020.0
20260503184154 78 13 1.0 1.0 0.00 0.01 0.01 41 1020.0
20260503183650 78 240 1.0 1.0 0.00 0.01 0.01 43 1020.3
20260503183148 78 107 0.0 0.0 0.00 0.01 0.01 44 1020.3
20260503182646 78 183 1.0 1.0 0.00 0.01 0.01 43 1020.2
20260503182144 78 107 0.0 0.0 0.00 0.01 0.01 44 1020.4
20260503181641 77 115 0.0 0.0 0.00 0.01 0.01 42 1020.5
20260503181138 77 144 2.0 2.0 0.00 0.01 0.01 42 1020.8
20260503180635 77 114 1.0 1.0 0.00 0.01 0.01 44 1021.0
20260503180132 76 357 1.0 1.0 0.00 0.01 0.01 44 1020.9
20260503175629 76 163 2.0 2.0 0.00 0.01 0.01 45 1021.0
20260503175126 76 139 4.0 6.0 0.00 0.01 0.01 43 1021.0
20260503174623 76 87 0.0 0.0 0.00 0.01 0.01 44 1021.0
20260503174120 77 111 0.0 0.0 0.00 0.01 0.01 45 1021.3
20260503173615 76 117 0.0 0.0 0.00 0.01 0.01 44 1021.0
20260503173112 76 178 0.0 1.0 0.00 0.01 0.01 48 1021.3
20260503172609 76 93 1.0 2.0 0.00 0.01 0.01 44 1021.4
20260503172106 76 138 0.0 0.0 0.00 0.01 0.01 48 1021.3
20260503171603 76 121 1.0 1.0 0.00 0.01 0.01 47 1021.5
20260503171100 75 166 2.0 2.0 0.00 0.01 0.01 49 1021.4
20260503170556 75 112 0.0 0.0 0.00 0.01 0.01 45 1021.5
20260503150949 69 118 0.0 0.0 0.07 0.01 0.01 65 1022.0
20260503150445 68 100 0.0 0.0 0.00 0.00 0.00 63 1022.0
20260503131338 51 102 0.0 0.0 0.00 0.00 0.00 99 1021.5
20260503130836 51 102 0.0 0.0 0.00 0.00 0.00 99 1021.5
20260503130333 51 102 0.0 0.0 0.00 0.00 0.00 99 1021.5
20260503110727 48 103 0.0 0.0 0.00 0.00 0.00 99 1020.4
20260503110224 48 103 0.0 0.0 0.00 0.00 0.00 99 1020.3
20260503100150 49 102 0.0 0.0 0.00 0.00 0.00 99 1020.0
20260503090109 49 102 0.0 0.0 0.00 0.00 0.00 99 1019.7
20260503081539 50 102 0.0 0.0 0.00 0.00 0.00 99 1019.7
20260503081036 50 102 0.0 0.0 0.00 0.00 0.00 99 1019.7
20260503080532 50 102 0.0 0.0 0.00 0.00 0.00 99 1020.0
20260503072506 51 102 0.0 0.0 0.00 0.00 0.00 99 1019.7
20260503072003 51 102 0.0 0.0 0.00 0.00 0.00 99 1019.8
20260503071500 51 102 0.0 0.0 0.00 0.00 0.00 99 1020.0
20260503070956 51 102 0.0 0.0 0.00 0.00 0.00 99 1020.0
20260503070453 51 102 0.0 0.0 0.00 0.00 0.00 99 1019.8